Tracking 27422 objects as of 30-May-2023
HD Live streaming from Space Station
objects crossing your sky now

STARLINK-4564

Track STARLINK-4564 now!
10-day predictions
STARLINK-4564 is classified as:


NORAD ID: 53560
Int'l Code: 2022-101AK
Perigee: 546.4 km
Apogee: 547.4 km
Inclination: 53.2 °
Period: 95.4 minutes
Semi major axis: 6917 km
RCS: Unknown
Launch date: August 19, 2022
Source: United States (US)
Launch site: AIR FORCE EASTERN TEST RANGE (AFETR)
Your satellite tracking list
Your tracking list is empty




NASA's NSSDC Master Catalog

Two Line Element Set (TLE):
1 53560U 22101AK  23149.76638913  .00001229  00000-0  95236-4 0  9990
2 53560  53.2156 290.4761 0000702 109.5389 250.5679 15.08844716 43225
Source of the keplerian elements: AFSPC